This is the latest recevied weather packets stored in our database for station/object W4SMH. If no packets are shown the sender has not sent any weather packets the latest 10 day(s).
| Time | Temp. | Humidity | Pressure | Rain* | Wind** | Luminosity | Snow |
|---|---|---|---|---|---|---|---|
| 1777599955 | 3.89° C | 87% | 1013.5 hPa | 0.25 mm | - | 0 W/m² | - |
| 1777599919 | 3.89° C | 87% | 1013.5 hPa | 0.25 mm | - | 0 W/m² | - |
| 1777599751 | 3.89° C | 87% | 1013.5 hPa | 0.25 mm | - | 0 W/m² | - |
| 1777599732 | 13.89° C | 68% | 1011.6 hPa | 0 mm | - | 0 W/m² | - |
| 1777599583 | 3.89° C | 86% | 1013.3 hPa | 0 mm | - | 0 W/m² | - |
| 1777599087 | 3.89° C | 86% | 1013.3 hPa | 0 mm | - | 0 W/m² | - |
| 1777598801 | 3.89° C | 87% | 1013.6 hPa | 0 mm | - | 0 W/m² | - |
| 1777598745 | 3.89° C | 87% | 1013.5 hPa | 0 mm | - | 0 W/m² | - |
| 1777598714 | 3.89° C | 87% | 1013.5 hPa | 0 mm | - | 0 W/m² | - |
| 1777598658 | 3.89° C | 87% | 1013.5 hPa | 0 mm | - | 0 W/m² | - |
| 1777598076 | 3.89° C | 86% | 1013.6 hPa | 0 mm | - | 0 W/m² | - |
| 1777597573 | 3.89° C | 86% | 1013.4 hPa | 0 mm | - | 0 W/m² | - |
| 1777597208 | 3.89° C | 86% | 1013.5 hPa | 0 mm | - | 0 W/m² | - |
| 1777596522 | 4.44° C | 86% | 1013.5 hPa | 0 mm | - | 0 W/m² | - |
| 1777596458 | 4.44° C | 86% | 1013.4 hPa | 0 mm | - | 0 W/m² | - |
| 1777596261 | 4.44° C | 85% | 1013.4 hPa | 0 mm | - | 0 W/m² | - |
| 1777595942 | 4.44° C | 85% | 1013.4 hPa | 0 mm | - | 0 W/m² | - |
| 1777595883 | 4.44° C | 85% | 1013.5 hPa | 0 mm | - | 0 W/m² | - |
| 1777595397 | 4.44° C | 85% | 1013.2 hPa | 0.25 mm | - | 9 W/m² | - |
| 1777595092 | 4.44° C | 85% | 1013.2 hPa | 0.25 mm | - | 14 W/m² | - |
| 1777594370 | 4.44° C | 84% | 1013.3 hPa | 0.25 mm | - | 25 W/m² | - |
| 1777594342 | 4.44° C | 84% | 1013.4 hPa | 0.25 mm | - | 25 W/m² | - |
| 1777593900 | 5° C | 84% | 1013.2 hPa | 0.51 mm | - | 28 W/m² | - |
| 1777592823 | 5° C | 84% | 1013.3 hPa | 0.51 mm | - | 63 W/m² | - |
| 1777592633 | 5° C | 84% | 1013.3 hPa | 0.51 mm | - | 76 W/m² | - |
* Rain latest hour (hover to see other rain measurements)
** Current wind speed in m/s (hover to see current wind gust speed)